Regional Weather Roundup
Issued by NWS

Home | Current Version | Previous Version | Graphics & Text | Print | Product List | Glossary On
Versions: 1 2 3 4 5 6 7 8 9 10 11 12 13 14 15 16 17 18 19 20 21 22 23 24 25 26 27 28 29 30 31 32 33 34 35 36 37 38 39 40 41 42 43 44 45 46 47 48 49 50
000
ASUS43 KFSD 201602
RWRSD

WEATHER ROUNDUP FOR SOUTH DAKOTA
NATIONAL WEATHER SERVICE SIOUX FALLS SD
1100 AM CDT SUN APR 20 2014

NOTE: "FAIR" INDICATES FEW OR NO CLOUDS BELOW 12,000 FEET WITH NO
SIGNIFICANT WEATHER AND/OR OBSTRUCTIONS TO VISIBILITY.


SDZ001>005-009-010-012>017-201700-
NORTHWEST AND NORTH CENTRAL SOUTH DAKOTA

CITY           SKY/WX    TMP DP  RH WIND       PRES   REMARKS
FAITH            N/A     63  36  36 S15G25    29.92R
MOBRIDGE       SUNNY     60  32  34 S12       29.94S
$$

SDZ012>016-024>037-041>051-057-063-072>074-201700-
SOUTHWEST AND SOUTH CENTRAL SOUTH DAKOTA

CITY           SKY/WX    TMP DP  RH WIND       PRES   REMARKS
RAPID CTY ARPT SUNNY     63  37  38 VRB7      29.92R
PIERRE         SUNNY     64  31  28 SE13      29.95F
CUSTER         SUNNY     64  25  22 W7        29.98S
ELLSWORTH AFB  SUNNY     61  38  42 N10       29.92R
PHILIP         SUNNY     66  40  38 S17       29.92S
PINE RIDGE     SUNNY     65  44  46 S12       29.95R
WINNER         FAIR      69  29  22 SE18      29.97S
$$

SDZ004>011-016>023-039-040-201700-
NORTHEAST SOUTH DAKOTA

CITY           SKY/WX    TMP DP  RH WIND       PRES   REMARKS
ABERDEEN       SUNNY     59  38  45 SE5       30.00F
WATERTOWN      SUNNY     66  32  28 VRB7      30.01R
SISSETON         N/A     60  38  43 S10       30.01S
$$

SDZ017-020-022-023-036>040-048>070-201700-
SOUTHEAST SOUTH DAKOTA

CITY           SKY/WX    TMP DP  RH WIND       PRES   REMARKS
SIOUX FALLS    MOSUNNY   70  31  23 E17       29.99S
HURON          SUNNY     67  31  26 SE8       29.99S
CHAMBERLAIN      N/A     67  28  23 SE15      29.98S
MITCHELL       SUNNY     69  32  25 SE13      29.98F
YANKTON        SUNNY     66  45  45 E7        29.98S
$$

ABBREVIATIONS USED IN REMARKS
   TC - TEMPERATURE IN CELSIUS
  WCI - WIND CHILL INDEX
   HX - HEAT INDEX
  VSB - VISIBILITY




USA.gov is the U.S. government's official web portal to all federal, state and local government web resources and services.